Stations météo

Publicité
Paris-Montsouris, France (7156): Température de l'air & dewpoint: 10.02.2019 18:00:00 - 16.02.2019 18:00:00 (CET)Paris-Montsouris, France (7156): Température de l'air 5cm: 10.02.2019 18:00:00 - 16.02.2019 18:00:00 (CET)Paris-Montsouris, France (7156): Température de l'air -20cm & Température de l'air -100cm: 10.02.2019 18:00:00 - 16.02.2019 18:00:00 (CET)Paris-Montsouris, France (7156): Vitesse du vent & gusts: 10.02.2019 18:00:00 - 16.02.2019 18:00:00 (CET)Paris-Montsouris, France (7156): Direction du vent: 10.02.2019 18:00:00 - 16.02.2019 18:00:00 (CET)Paris-Montsouris, France (7156): reduced air pressure: 10.02.2019 18:00:00 - 16.02.2019 18:00:00 (CET)Paris-Montsouris, France (7156): visibility: 10.02.2019 18:00:00 - 16.02.2019 18:00:00 (CET)Paris-Montsouris, France (7156): Ensoleillement: 10.02.2019 18:00:00 - 16.02.2019 18:00:00 (CET)Paris-Montsouris, France (7156): Quantités de précipitations: 10.02.2019 18:00:00 - 16.02.2019 18:00:00 (CET)
Date & Time tt [°C] td [°C] tt 5cm [°C] tt -20cm [°C] tt -100cm [°C] ff [km/h] ff [knt] fx [km/h] fx [knt] dd ppp [hPa] vv [km] sd [min] rr [mm]
16.02.2019 18:00:00 13,3 3,9 - - - 8 4 16 9 S 1024,7 19 - 0,0
16.02.2019 17:00:00 14,8 3,6 12,9 4,6 7,2 9 5 18 10 S 1025,0 20 53 0,0
16.02.2019 16:00:00 16,1 3,2 15,4 4,4 7,2 8 4 20 11 SW 1025,4 20 60 0,0
16.02.2019 15:00:00 15,9 4,0 15,4 4,2 7,2 12 6 22 12 SSW 1025,9 20 60 0,0
16.02.2019 14:00:00 15,8 3,6 15,4 4,0 7,2 10 5 18 10 S 1026,5 20 60 0,0
16.02.2019 13:00:00 13,6 2,8 11,7 3,9 7,2 8 4 16 9 S 1027,1 19 60 0,0
16.02.2019 12:00:00 10,7 3,0 7,9 3,9 7,2 6 3 15 8 SSW 1027,9 16 60 0,0
16.02.2019 11:00:00 8,0 2,9 6,2 3,9 7,2 10 5 16 9 S 1027,9 13 60 0,0
16.02.2019 10:00:00 4,8 2,3 1,6 4,0 7,2 5 3 16 9 SSW 1028,0 11 60 0,0
16.02.2019 09:00:00 2,7 1,5 -0,7 4,0 7,2 6 4 13 7 S 1027,8 9 38 0,0
16.02.2019 08:00:00 2,3 1,0 -1,3 4,1 7,2 6 3 14 8 S 1027,6 9 0 0,0
16.02.2019 07:00:00 2,5 1,0 -1,1 4,2 7,2 5 3 14 8 S 1027,1 10 0 0,0
16.02.2019 06:00:00 2,8 1,2 -1,2 4,2 7,2 5 3 14 8 S 1027,2 10 0 0,0
16.02.2019 05:00:00 3,4 1,6 -0,6 4,3 7,2 6 3 13 7 S 1026,8 12 0 0,0
16.02.2019 04:00:00 3,6 1,5 -0,5 4,4 7,3 6 3 10 5 S 1026,9 13 0 0,0
16.02.2019 03:00:00 4,4 2,1 0,2 4,5 7,3 6 4 9 5 S 1027,0 12 0 0,0
16.02.2019 02:00:00 4,9 2,4 0,7 4,5 7,2 6 3 8 4 S 1027,4 14 0 0,0
16.02.2019 01:00:00 5,5 2,7 1,3 4,6 7,2 5 3 9 5 SSW 1027,2 11 0 0,0
16.02.2019 00:00:00 6,5 3,3 1,3 4,7 7,2 5 3 8 5 SW 1027,2 12 0 0,0
15.02.2019 23:00:00 7,2 3,4 1,7 4,7 7,2 6 3 8 5 S 1027,1 11 0 0,0
15.02.2019 22:00:00 8,6 3,8 2,8 4,8 7,2 6 4 10 6 S 1027,1 16 0 0,0
15.02.2019 21:00:00 9,8 3,5 3,5 4,8 7,2 4 2 12 6 SSE 1027,3 20 0 0,0
15.02.2019 20:00:00 10,7 2,5 4,3 4,9 7,3 5 3 11 6 SSE 1027,4 20 0 0,0
15.02.2019 19:00:00 11,5 2,2 4,5 4,8 7,2 7 4 11 6 SE 1027,2 20 0 0,0
15.02.2019 18:00:00 12,4 2,3 6,2 4,8 7,3 5 3 12 7 SSE 1027,3 20 45 0,0
15.02.2019 17:00:00 13,9 2,1 11,0 4,7 7,3 6 3 14 7 SSE 1027,4 20 60 0,0
15.02.2019 16:00:00 15,0 2,5 13,2 4,5 7,3 5 3 17 9 SE 1027,5 20 60 0,0
15.02.2019 15:00:00 14,5 3,0 13,3 4,3 7,3 11 6 19 11 ESE 1028,0 18 60 0,0
15.02.2019 14:00:00 14,2 1,5 13,9 4,1 7,3 10 5 19 11 S 1028,9 20 60 0,0
15.02.2019 13:00:00 11,7 1,3 10,5 4,0 7,3 10 6 18 10 S 1029,6 19 60 0,0
15.02.2019 12:00:00 9,6 1,0 7,8 4,0 7,3 9 5 21 11 SSE 1030,3 20 60 0,0
15.02.2019 11:00:00 8,3 0,5 6,3 4,0 7,3 8 4 17 9 S 1030,6 20 60 0,0
15.02.2019 10:00:00 5,9 0,2 0,6 4,1 7,3 11 6 20 11 SSE 1030,9 20 60 0,0
15.02.2019 09:00:00 3,1 -0,2 -0,7 4,2 7,3 5 3 10 5 S 1031,0 17 36 0,0
15.02.2019 08:00:00 3,0 0,4 -1,1 4,3 7,3 6 3 12 7 SSW 1030,8 16 0 0,0
15.02.2019 07:00:00 3,5 0,2 -0,9 4,3 7,3 4 2 9 5 SSE 1030,6 19 0 0,0
15.02.2019 06:00:00 4,1 0,8 -0,4 4,4 7,3 5 3 13 7 SE 1030,3 19 0 0,0
15.02.2019 05:00:00 4,2 1,1 -0,5 4,5 7,4 7 4 12 7 SE 1030,2 20 0 0,0
15.02.2019 04:00:00 4,4 1,4 0,1 4,5 7,3 7 4 12 6 SSE 1030,5 17 0 0,0
15.02.2019 03:00:00 5,1 1,8 0,7 4,6 7,3 6 3 18 10 S 1030,8 18 0 0,0
15.02.2019 02:00:00 5,5 2,1 0,9 4,7 7,3 7 4 15 8 SSE 1031,1 18 0 0,0
15.02.2019 01:00:00 6,0 3,0 1,3 4,8 7,4 8 4 13 7 SE 1031,2 13 0 0,0
15.02.2019 00:00:00 7,0 3,2 1,7 4,8 7,3 5 3 15 8 SE 1030,9 14 0 0,0
14.02.2019 23:00:00 7,0 3,6 1,7 4,9 7,3 3 2 8 4 ESE 1031,3 16 0 0,0
14.02.2019 22:00:00 7,9 3,5 2,5 4,9 7,3 4 2 15 8 SE 1031,5 19 0 0,0
14.02.2019 21:00:00 8,4 3,2 2,7 5,0 7,4 5 3 14 8 ESE 1031,7 20 0 0,0
14.02.2019 20:00:00 9,1 3,3 3,0 5,0 7,3 8 5 18 10 ESE 1031,8 20 0 0,0
14.02.2019 19:00:00 9,9 2,5 4,7 5,0 7,4 9 5 18 10 ESE 1031,7 20 0 0,0
14.02.2019 18:00:00 11,2 3,0 6,1 4,9 7,3 9 5 18 10 E 1031,4 20 44 0,0
14.02.2019 17:00:00 12,6 2,7 9,7 4,8 7,4 6 4 16 9 ESE 1031,4 19 60 0,0
14.02.2019 16:00:00 13,3 1,9 12,4 4,6 7,3 6 3 16 9 SE 1031,9 20 60 0,0
14.02.2019 15:00:00 12,9 1,5 12,4 4,4 7,3 6 4 14 8 SSE 1032,3 19 60 0,0
14.02.2019 14:00:00 12,1 2,3 12,1 4,2 7,4 6 3 19 11 SE 1033,3 19 60 0,0
14.02.2019 13:00:00 9,5 1,6 8,8 4,1 7,4 6 3 14 7 SE 1034,1 18 60 0,0
14.02.2019 12:00:00 7,5 1,3 5,8 4,1 7,4 6 4 17 9 S 1034,9 19 60 0,0
14.02.2019 11:00:00 5,8 0,3 4,3 4,2 7,4 9 5 16 9 S 1034,9 20 60 0,0
14.02.2019 10:00:00 3,6 0,6 0,6 4,3 7,4 9 5 15 8 SE 1035,0 18 60 0,0
14.02.2019 09:00:00 2,2 0,4 -1,7 4,4 7,4 7 4 13 7 SE 1035,0 17 34 0,0
14.02.2019 08:00:00 1,7 0,4 -2,5 4,4 7,4 6 3 11 6 SE 1034,5 16 0 0,0
14.02.2019 07:00:00 1,4 -0,1 -2,2 4,5 7,4 4 2 9 5 S 1034,3 14 0 0,0
14.02.2019 06:00:00 2,0 0,5 -1,6 4,6 7,4 5 3 11 6 SSE 1034,2 17 0 0,0
14.02.2019 05:00:00 2,2 0,6 -1,6 4,7 7,4 5 3 9 5 SSE 1034,0 15 0 0,0
14.02.2019 04:00:00 2,6 0,8 -1,5 4,7 7,4 4 2 11 6 S 1034,1 15 0 0,0
14.02.2019 03:00:00 3,1 0,8 -0,4 4,8 7,4 5 3 10 5 SSE 1034,3 18 0 0,0
14.02.2019 02:00:00 3,5 1,0 -0,2 4,9 7,4 6 3 13 7 ESE 1034,5 19 0 0,0
14.02.2019 01:00:00 4,1 1,1 0,1 5,0 7,4 5 3 13 7 SE 1035,0 20 0 0,0
14.02.2019 00:00:00 4,7 1,2 0,7 5,0 7,4 8 5 15 8 SE 1034,6 20 0 0,0
13.02.2019 23:00:00 4,9 1,4 0,6 5,1 7,4 7 4 17 9 E 1035,0 20 0 0,0
13.02.2019 22:00:00 5,3 1,0 1,3 5,2 7,4 4 2 15 8 E 1035,2 20 0 0,0
13.02.2019 21:00:00 5,9 0,2 1,9 5,3 7,4 5 3 18 10 SE 1035,0 20 0 0,0
13.02.2019 20:00:00 6,3 0,8 2,3 5,3 7,4 6 3 21 11 ESE 1035,0 20 0 0,0
13.02.2019 19:00:00 6,7 -0,1 2,0 5,4 7,4 8 4 15 8 ESE 1034,9 20 0 0,0
13.02.2019 18:00:00 7,2 -0,8 3,0 5,3 7,4 8 4 16 9 SE 1034,7 20 42 0,0
13.02.2019 17:00:00 8,1 -0,7 6,8 5,2 7,4 6 3 15 8 SE 1034,8 20 52 0,0
13.02.2019 16:00:00 8,5 -0,3 8,0 5,1 7,4 6 3 15 8 ESE 1035,3 20 60 0,0
13.02.2019 15:00:00 8,1 0,1 7,9 5,0 7,4 9 5 19 10 SE 1035,4 20 60 0,0
13.02.2019 14:00:00 7,7 0,9 9,2 4,9 7,4 6 4 24 13 ESE 1035,9 20 60 0,0
13.02.2019 13:00:00 5,4 0,9 5,6 4,8 7,4 8 4 19 11 SSE 1036,9 18 60 0,0
13.02.2019 12:00:00 2,7 0,6 2,8 4,7 7,4 5 3 16 9 SE 1037,6 11 60 0,0
13.02.2019 11:00:00 1,5 0,8 1,2 4,7 7,4 5 3 12 6 SSE 1037,7 8 43 0,0
13.02.2019 10:00:00 0,4 0,0 0,0 4,8 7,4 6 4 11 6 SSE 1037,6 2,5 4 0,0
13.02.2019 09:00:00 -0,1 -0,5 -0,1 4,8 7,4 5 3 12 6 SSE 1037,5 0,6 0 0,0
13.02.2019 08:00:00 0,2 -0,2 -0,1 4,9 7,4 3 1 11 6 SSE 1037,2 0,3 0 0,0
13.02.2019 07:00:00 0,4 0,0 0,1 4,9 7,4 5 3 11 6 SE 1037,1 0,2 0 0,0
13.02.2019 06:00:00 1,0 0,4 0,3 5,0 7,4 4 2 8 4 SSE 1037,4 0,4 0 0,0
13.02.2019 05:00:00 1,4 0,8 -2,0 5,1 7,4 5 3 11 6 S 1037,1 0,3 0 0,0
13.02.2019 04:00:00 1,9 1,2 -1,9 5,2 7,4 6 3 13 7 SSE 1037,2 1,2 0 0,0
13.02.2019 03:00:00 1,9 1,2 -2,3 5,3 7,4 7 4 10 5 SE 1037,4 3,4 0 0,0
13.02.2019 02:00:00 2,1 1,1 -1,8 5,4 7,4 4 2 10 5 S 1037,5 6 0 0,0
13.02.2019 01:00:00 2,9 1,6 -1,0 5,5 7,4 6 4 12 7 S 1037,2 7 0 0,0
13.02.2019 00:00:00 3,4 1,6 -0,3 5,6 7,4 7 4 13 7 SSE 1037,4 10 0 0,0
12.02.2019 23:00:00 3,4 1,0 -0,3 5,7 7,4 5 3 11 6 S 1037,3 17 0 0,0
12.02.2019 22:00:00 4,1 1,1 0,5 5,8 7,4 6 3 11 6 S 1037,3 17 0 0,0
12.02.2019 21:00:00 4,6 1,1 0,8 5,9 7,4 8 4 15 8 SSW 1037,4 19 0 0,0
12.02.2019 20:00:00 5,0 0,7 1,1 5,9 7,4 6 3 17 9 S 1037,4 20 0 0,0
12.02.2019 19:00:00 6,3 0,8 3,3 5,9 7,4 9 5 21 11 S 1037,1 20 0 0,0
12.02.2019 18:00:00 6,9 0,3 4,8 5,9 7,4 6 3 17 9 S 1036,5 20 7 0,0
12.02.2019 17:00:00 8,2 0,7 8,1 5,8 7,4 8 4 17 9 SSE 1036,1 20 60 0,0
12.02.2019 16:00:00 8,6 0,3 9,0 5,6 7,4 4 2 14 8 ESE 1036,2 20 19 0,0
12.02.2019 15:00:00 8,6 0,6 9,1 5,4 7,4 4 2 14 7 NW 1036,4 20 17 0,0
12.02.2019 14:00:00 7,9 0,4 8,7 5,3 7,4 6 3 16 9 WSW 1036,6 20 2 0,0
12.02.2019 13:00:00 7,2 2,7 7,7 5,2 7,4 4 2 14 7 SSW 1037,0 20 0 0,0
12.02.2019 12:00:00 6,3 3,1 6,8 5,1 7,4 6 3 12 6 SSW 1037,2 17 0 0,0
12.02.2019 11:00:00 5,4 2,2 4,6 5,1 7,3 5 3 11 6 W 1037,1 20 0 0,0
12.02.2019 10:00:00 4,5 2,7 2,6 5,2 7,4 6 3 11 6 W 1037,2 16 0 0,0
12.02.2019 09:00:00 3,2 2,0 0,4 5,3 7,3 4 2 8 4 WSW 1036,7 18 0 0,0
12.02.2019 08:00:00 2,7 1,8 -1,6 5,4 7,3 5 3 8 4 W 1036,0 15 0 0,0
12.02.2019 07:00:00 2,1 1,2 -1,9 5,5 7,3 5 3 9 5 W 1035,5 17 0 0,0
12.02.2019 06:00:00 2,1 1,2 -1,8 5,6 7,3 5 3 8 4 SW 1035,4 17 0 0,0
12.02.2019 05:00:00 2,4 1,2 -1,4 5,7 7,3 5 3 9 5 S 1035,1 19 0 0,0
12.02.2019 04:00:00 3,6 2,3 -0,6 5,8 7,3 5 3 9 5 WNW 1035,5 20 0 0,0
12.02.2019 03:00:00 3,5 2,2 -0,9 5,9 7,3 4 2 8 5 W 1035,1 20 0 0,0
12.02.2019 02:00:00 3,9 2,1 0,1 6,0 7,3 5 3 9 5 W 1034,9 20 0 0,0
12.02.2019 01:00:00 4,3 2,2 0,7 6,1 7,3 6 4 12 6 W 1034,6 20 0 0,0
12.02.2019 00:00:00 5,1 2,3 1,0 6,2 7,3 8 4 13 7 WNW 1034,4 20 0 0,0
11.02.2019 23:00:00 5,1 2,1 1,5 6,4 7,3 5 3 18 10 N 1034,0 20 0 0,0
11.02.2019 22:00:00 5,8 2,1 2,4 6,4 7,3 7 4 21 12 N 1033,3 20 0 0,0
11.02.2019 21:00:00 6,4 2,1 3,1 6,5 7,3 9 5 21 11 NNW 1032,5 20 0 0,0
11.02.2019 20:00:00 7,3 2,2 4,8 6,5 7,3 9 5 25 13 N 1031,5 20 0 0,0
11.02.2019 19:00:00 8,0 2,4 6,0 6,5 7,3 11 6 24 13 N 1030,7 20 0 0,0
11.02.2019 18:00:00 8,5 2,1 7,3 6,4 7,3 12 6 25 14 NNW 1029,7 20 0 0,0
11.02.2019 17:00:00 8,6 1,9 8,3 6,3 7,3 11 6 26 14 NNW 1028,6 20 0 0,0
11.02.2019 16:00:00 8,8 2,4 9,0 6,2 7,3 18 10 37 20 N 1027,7 20 0 0,0
11.02.2019 15:00:00 9,6 1,2 8,6 6,1 7,2 17 9 35 19 N 1026,5 20 11 0,0
11.02.2019 14:00:00 8,8 4,0 9,1 6,0 7,2 18 10 34 18 NNW 1025,6 20 3 0,0
11.02.2019 13:00:00 8,0 4,4 8,4 5,9 7,3 15 8 30 16 NNW 1024,9 20 7 0,0
11.02.2019 12:00:00 7,2 4,3 7,2 5,8 7,2 14 8 30 16 WNW 1024,0 20 0 0,0
11.02.2019 11:00:00 6,7 3,7 5,7 5,9 7,2 13 7 37 20 WNW 1022,8 20 10 0,0
11.02.2019 10:00:00 5,5 3,0 4,2 5,9 7,2 15 8 33 18 W 1021,5 20 3 0,0
11.02.2019 09:00:00 4,8 2,7 3,0 5,9 7,2 16 8 27 15 W 1020,9 15 0 0,2
11.02.2019 08:00:00 4,1 1,8 2,8 6,0 7,2 11 6 27 15 WSW 1019,9 20 0 0,0
11.02.2019 07:00:00 4,0 1,9 2,3 6,1 7,2 8 5 20 11 SW 1018,9 20 0 0,0
11.02.2019 06:00:00 4,0 1,7 1,7 6,2 7,2 8 5 27 14 W 1018,7 20 0 0,0
11.02.2019 05:00:00 4,1 1,6 1,4 6,3 7,2 11 6 27 15 W 1017,7 20 0 0,0
11.02.2019 04:00:00 4,4 1,8 2,3 6,4 7,2 11 6 26 14 WSW 1017,2 20 0 0,0
11.02.2019 03:00:00 4,9 1,7 3,5 6,5 7,2 15 8 39 21 W 1017,0 20 0 0,0
11.02.2019 02:00:00 5,2 0,9 3,7 6,6 7,2 13 7 40 21 WNW 1016,3 20 0 0,0
11.02.2019 01:00:00 5,4 1,7 3,7 6,7 7,2 13 7 37 20 WNW 1014,9 20 0 0,0
11.02.2019 00:00:00 5,4 1,7 3,9 6,8 7,2 13 7 42 23 WNW 1014,1 20 0 0,0
10.02.2019 23:00:00 5,7 1,6 4,1 6,9 7,2 14 8 37 20 W 1013,2 20 0 0,0
10.02.2019 22:00:00 6,1 1,8 3,9 6,9 7,2 16 9 40 22 W 1012,1 20 0 0,0
10.02.2019 21:00:00 6,0 2,8 3,6 7,0 7,2 14 8 54 29 WNW 1011,1 20 0 0,2
10.02.2019 20:00:00 6,7 2,8 4,8 7,0 7,2 17 9 59 32 WNW 1009,7 20 0 0,0
10.02.2019 19:00:00 6,9 2,6 5,1 7,1 7,2 22 12 54 29 W 1007,7 20 0 0,0
10.02.2019 18:00:00 7,1 3,0 5,2 7,1 7,2 23 12 61 33 W 1006,2 20 6 0,2

tt = Température de l'air
td = dewpoint
tt 5cm = Température de l'air 5cm
tt -20cm = Température de l'air -20cm
tt -100cm = Température de l'air -100cm
ff = Vitesse du vent
fx = gusts
dd = Direction du vent
ppp = reduced air pressure
vv = visibility
sd = Ensoleillement
rr = Quantités de précipitations

stations d'obs. à proximité